Provo, UT

6:13 AM MST on November 21, 2019 (GMT -0700)
Provo Municipal

Weather History for KPVU - September, 2019

Change the Weather History Date:

Friday, September 27, 2019

  Actual Average Record
Temperature  
Mean Temperature 65 °F -  
Max Temperature 75 °F 71 °F 87 °F (2001)
Min Temperature 55 °F 43 °F 33 °F (1999)
Growing Degree Days 15 (Base 50)    
Moisture  
Dew Point 46 °F    
Average Humidity 51    
Maximum Humidity 72    
Minimum Humidity 34    
Precipitation  
Precipitation 0.00 in - - ()
Sea Level Pressure  
Sea Level Pressure 29.71 in    
Wind  
Wind Speed 8 mph (NNW)    
Max Wind Speed 17 mph    
Max Gust Speed -    
Visibility 10 miles    
Events Rain    
Averages and records for this station are not official NWS values.
T = Trace of Precipitation, MM = Missing Value Source: NWS Daily Summary

Daily Weather History Graph

Daily Weather History Graph

Search for Another Location

Airport or City:

Astronomy

Sep. 27, 2019 Rise Set
Actual Time 7:19 AM MDT 7:15 PM MDT
Civil Twilight 6:52 AM MDT 7:42 PM MDT
Nautical Twilight 6:20 AM MDT 8:14 PM MDT
Astronomical Twilight 5:48 AM MDT 8:46 PM MDT
Moon 5:44 AM MDT (9/27) 7:08 PM MDT (9/27)
Length of Visible Light 12h 50m
Length of Day
11h 56m
Waning Crescent, 2% of the Moon is Illuminated
Sep 27
Waning Crescent
Sep 28
New
Oct 5
First Quarter
Oct 13
Full
Oct 21
Last Quarter

Hourly Weather History & Observations

Time (MDT) Temp. Dew Point Humidity Pressure Visibility Wind Dir Wind Speed Gust Speed Precip Events Conditions
12:56 AM 60.1 °F 39.9 °F 47% 29.71 in 10.0 mi Variable 5.8 mph - N/A   Clear
1:56 AM 59.0 °F 42.1 °F 53% 29.71 in 10.0 mi ESE 5.8 mph - N/A   Clear
2:56 AM 57.9 °F 41.0 °F 53% 29.71 in 10.0 mi East 4.6 mph - N/A   Clear
3:56 AM 55.0 °F 45.0 °F 69% 29.71 in 10.0 mi East 4.6 mph - N/A   Clear
4:56 AM 57.0 °F 45.0 °F 64% 29.70 in 10.0 mi West 4.6 mph - N/A   Clear
5:56 AM 55.9 °F 45.0 °F 67% 29.71 in 10.0 mi East 4.6 mph - N/A   Clear
6:56 AM 57.0 °F 44.1 °F 62% 29.72 in 10.0 mi Calm Calm - N/A   Clear
7:56 AM 55.0 °F 45.0 °F 69% 29.76 in 10.0 mi East 4.6 mph - N/A   Clear
8:56 AM 64.0 °F 48.0 °F 56% 29.75 in 10.0 mi ENE 4.6 mph - N/A   Partly Cloudy
9:56 AM 69.1 °F 46.9 °F 45% 29.76 in 10.0 mi Calm Calm - N/A   Scattered Clouds
10:56 AM 70.0 °F 46.9 °F 44% 29.78 in 10.0 mi WNW 8.1 mph - N/A   Scattered Clouds
11:16 AM 69.8 °F 48.2 °F 46% 29.89 in 2.0 mi NW 11.5 mph - N/A   Haze
11:31 AM 71.6 °F 50.0 °F 46% 29.89 in 10.0 mi NW 10.4 mph - N/A   Clear
11:56 AM 70.0 °F 48.9 °F 47% 29.77 in 10.0 mi WNW 10.4 mph - N/A   Clear
12:56 PM 73.0 °F 44.1 °F 35% 29.74 in 10.0 mi NW 11.5 mph - N/A   Clear
1:56 PM 73.9 °F 44.1 °F 34% 29.71 in 10.0 mi NW 16.1 mph - N/A   Clear
1:57 PM 73.9 °F 44.1 °F 34% 29.71 in 10.0 mi NW 16.1 mph - N/A   Mostly Cloudy
2:56 PM 75.0 °F 46.0 °F 36% 29.69 in 10.0 mi NW 17.3 mph - N/A   Mostly Cloudy
3:56 PM 71.1 °F 46.9 °F 42% 29.70 in 10.0 mi NW 13.8 mph - N/A   Mostly Cloudy
4:56 PM 70.0 °F 48.9 °F 47% 29.68 in 10.0 mi NW 13.8 mph - N/A   Overcast
4:57 PM 70.0 °F 48.9 °F 47% 29.68 in 10.0 mi NW 13.8 mph - N/A   Mostly Cloudy
5:56 PM 69.1 °F 48.9 °F 49% 29.68 in 10.0 mi NW 11.5 mph - N/A   Mostly Cloudy
6:56 PM 66.9 °F 46.9 °F 49% 29.65 in 10.0 mi NNW 10.4 mph - N/A   Mostly Cloudy
7:56 PM 66.0 °F 48.0 °F 52% 29.64 in 10.0 mi NNW 11.5 mph - N/A   Mostly Cloudy
8:56 PM 64.9 °F 46.9 °F 52% 29.62 in 10.0 mi NNW 11.5 mph - N/A   Overcast
9:56 PM 64.9 °F 46.9 °F 52% 29.61 in 10.0 mi NW 15.0 mph - N/A   Overcast
10:56 PM 61.0 °F 50.0 °F 67% 29.62 in 10.0 mi North 10.4 mph - 0.00 in Rain Light Rain
11:56 PM 60.1 °F 51.1 °F 72% 29.63 in 10.0 mi West 9.2 mph - 0.00 in   Mostly Cloudy